Location: C�mpuri de-Sus
(45.9500°N, 22.5500°E)
Time: 00:59:50
(UTC+00:00)

Cosmos 839 Rocket - Pass Details

Date: 07 June 2022
Orbit: 968 x 2085 km, 65.9° (Epoch: 06 July)

Event Time Altitude Azimuth Distance (km) Brightness Sun altitude
Rises 21:31:52 0° 321° (NW) 3,730 8.2 -20.0°
Reaches altitude 10° 21:34:21 10° 316° (NW) 2,837 7.3 -20.1°
Maximum altitude 21:40:38 49° 244° (WSW) 1,458 4.8 -20.4°
Enters shadow 21:43:57 31° 189° (S) 2,037 5.1 -20.5°
